User: anonymous   Login
Location: Unspecified
(0.0000°N, 0.0000°E)
Time: 10:28:17
(UTC+00:00)
Language:

ISS - Orbit

View from above orbital plane
View from above orbital plane
View from above satellite
View from above satellite

Ground track
Ground track

The orbit data is extracted from the following two-line orbital elements,

1 25544U 98067A   16126.13226852  .00006833  00000-0  10910-3 0  9999
2 25544  51.6433 272.8097 0001971  89.2690 251.7820 15.54447891998279
Epoch (UTC): 05 May 2016 03:10:28
Eccentricity: 0.0001971
inclination: 51.6433°
perigee height: 402 km
apogee height: 405 km
right ascension of ascending node: 272.8097°
argument of perigee: 89.2690°
revolutions per day: 15.54447891
mean anomaly at epoch: 251.7820°
orbit number at epoch: 99827

The dashed part of the orbit path shows where the satellite is in the earth's shadow,  

DLR